User: anonymous   Login
Location: Carrer del Canonge
(41.4901°N, 2.2931°E)
Time: 14:12:20
(UTC+00:00)
Language:

Meteor 1-15 Rocket - Orbit

View from above orbital plane
View from above orbital plane
View from above satellite
View from above satellite

Ground track
Ground track

The orbit data is extracted from the following two-line orbital elements,

1 06660U 73034B   21206.84121001 -.00000005  00000-0 -10782-4 0  9992
2 06660  81.2324 353.7990 0046710 194.7817 165.1989 14.05866443468830
Epoch (UTC): 25 July 2021 20:11:20
Eccentricity: 0.0046710
inclination: 81.2324°
perigee height: 839 km
apogee height: 907 km
right ascension of ascending node: 353.7990°
argument of perigee: 194.7817°
revolutions per day: 14.05866443
mean anomaly at epoch: 165.1989°
orbit number at epoch: 46883

The dashed part of the orbit path shows where the satellite is in the earth's shadow,  

DLR